Hourly Data Report for January 27, 2019

TORONTO CITY
ONTARIO
Current Station Operator: ECCC - MSC

43°40'00.000" N
79°24'00.000" W
112.50 m
6158355
71508
XTO

Download Data

Hourly Data (January 2019)
Hourly Data Report for January 27, 2019
TIME
LST
Temp Definition
°C
Dew Point Definition
°C
Rel Hum Definition
%
Precip. Amount Definition
mm

Wind Dir Definition
10's deg

Wind Spd Definition
km/h
Visibility Definition
km
Stn Press Definition
kPa
Hmdx Definition


Wind Chill Definition


Weather Definition


00:00 -5.3 -7.6 84 0.0 LegendMM LegendMM   99.97     LegendNANA
01:00 -4.4 -6.3 87 0.0 LegendMM LegendMM   99.81     LegendNANA
02:00 -4.4 -6.4 86 0.2 LegendMM LegendMM   99.61     LegendNANA
03:00 -4.3 -5.7 90 1.0 LegendMM LegendMM   99.40     LegendNANA
04:00 -3.9 -5.0 92 1.7 LegendMM LegendMM   99.17     LegendNANA
05:00 -2.7 -3.5 94 1.3 LegendMM LegendMM   99.01     LegendNANA
06:00 -5.7 -6.7 93 2.2 LegendMM LegendMM   99.07     LegendNANA
07:00 -7.0 -8.3 90 0.5 LegendMM LegendMM   99.33     LegendNANA
08:00 -7.4 -10.0 82 0.0 LegendMM LegendMM   99.52     LegendNANA
09:00 -7.3 -10.9 76 0.0 LegendMM LegendMM   99.64     LegendNANA
10:00 -6.8 -11.6 69 0.0 LegendMM LegendMM   99.69     LegendNANA
11:00 -7.7 -12.6 68 0.0 LegendMM LegendMM   99.81     LegendNANA
12:00 -7.7 -14.9 56 0.2 LegendMM LegendMM   99.89     LegendNANA
13:00 -8.2 -16.8 50 0.0 LegendMM LegendMM   99.96     LegendNANA
14:00 -7.7 -17.4 46 0.0 LegendMM LegendMM   99.97     LegendNANA
15:00 -8.4 -19.1 42 0.0 LegendMM LegendMM   100.01     LegendNANA
16:00 -9.4 -19.7 43 0.0 LegendMM LegendMM   100.10     LegendNANA
17:00 -10.1 -19.3 47 0.0 LegendMM LegendMM   100.20     LegendNANA
18:00 -10.7 -19.0 50 0.0 LegendMM LegendMM   100.33     LegendNANA
19:00 -11.2 -18.4 55 0.0 LegendMM LegendMM   100.37     LegendNANA
20:00 -11.3 -17.5 60 0.0 LegendMM LegendMM   100.40     LegendNANA
21:00 -12.1 -17.1 66 0.0 LegendMM LegendMM   100.48     LegendNANA
22:00 -12.6 -17.0 70 0.0 LegendMM LegendMM   100.50     LegendNANA
23:00 -12.8 -17.4 68 0.0 LegendMM LegendMM   100.49     LegendNANA

Notes on Data Quality.

Legend

  • E = Estimated
  • M = Missing
  • NA = Not Available*
  • [empty] = Indicates an unobserved value
Date modified: